This is the latest recevied weather packets stored in our database for station/object KB1JL-13. If no packets are shown the sender has not sent any weather packets the latest 1 day(s).
| Time | Temp. | Humidity | Pressure | Rain* | Wind** | Luminosity | Snow |
|---|---|---|---|---|---|---|---|
| 1778107410 | 13.33° C | 99% | 1018.5 hPa | 0 mm | - | 12 W/m² | - |
| 1778103467 | 13.33° C | 99% | 1018.5 hPa | 0 mm | - | 27 W/m² | - |
| 1778102556 | 13.33° C | 99% | 1018.5 hPa | 0 mm | - | 20 W/m² | - |
| 1778102246 | 13.33° C | 99% | 1018.2 hPa | 0 mm | - | 23 W/m² | - |
| 1778097699 | 13.89° C | 99% | 1019.2 hPa | 0 mm | - | 40 W/m² | - |
| 1778097092 | 13.89° C | 99% | 1018.9 hPa | 0 mm | - | 35 W/m² | - |
| 1778095273 | 13.89° C | 99% | 1019.2 hPa | 0 mm | - | 122 W/m² | - |
| 1778094970 | 13.89° C | 99% | 1019.2 hPa | 0 mm | - | 141 W/m² | - |
| 1778092544 | 13.89° C | 99% | 1019.9 hPa | 0 mm | - | 148 W/m² | - |
| 1778092241 | 13.89° C | 99% | 1019.9 hPa | 1.78 mm | - | 191 W/m² | - |
| 1778091030 | 13.89° C | 99% | 1019.9 hPa | 0 mm | - | 49 W/m² | - |
| 1778090120 | 13.89° C | 99% | 1019.5 hPa | 0 mm | - | 161 W/m² | - |
| 1778089515 | 13.89° C | 99% | 1019.9 hPa | 1.78 mm | - | 126 W/m² | - |
| 1778087696 | 14.44° C | 97% | 1020.9 hPa | 1.27 mm | - | 75 W/m² | - |
| 1778086487 | 15° C | 94% | 1020.9 hPa | 1.78 mm | - | 34 W/m² | - |
| 1778084967 | 15.56° C | 88% | 1021.2 hPa | 0 mm | - | 78 W/m² | - |
| 1778084665 | 16.11° C | 87% | 1021.2 hPa | 0 mm | - | 95 W/m² | - |
| 1778084060 | 16.11° C | 86% | 1021.2 hPa | 0 mm | - | 117 W/m² | - |
| 1778083449 | 16.67° C | 85% | 1021.6 hPa | 0 mm | - | 196 W/m² | - |
| 1778081423 | 16.67° C | 85% | 1021.6 hPa | 0 mm | - | 173 W/m² | - |
| 1778081120 | 16.67° C | 85% | 1021.6 hPa | 0 mm | - | 243 W/m² | - |
| 1778079606 | 16.67° C | 85% | 1021.6 hPa | 0 mm | - | 157 W/m² | - |
| 1778079000 | 16.67° C | 85% | 1021.6 hPa | 0 mm | - | 213 W/m² | - |
| 1778077790 | 17.22° C | 83% | 1021.6 hPa | 0 mm | - | 325 W/m² | - |
| 1778076581 | 18.33° C | 82% | 1021.6 hPa | 0 mm | - | 614 W/m² | - |
* Rain latest hour (hover to see other rain measurements)
** Current wind speed in m/s (hover to see current wind gust speed)